When you browse on this site, cookies collect data to enhance your experience and personalize the content and advertising you see.
Visit our Privacy Policy to learn more. By continuing to use the site, you agree to this use of cookies and data.

Stündliche Wetter Bolshie Kaskevichi

Heute, 23 September, Mittwoch

Zeit Temperatur Niederschläge Wind Luftdruck Luftfeuchtigkeit
00:00 +13°C° 0 mm 2 m/S 744 mmHg 89%
01:00 +13°C° 0 mm 2 m/S 744 mmHg 90%
02:00 +12°C° 0 mm 2 m/S 744 mmHg 91%
03:00 +12°C° 0 mm 2 m/S 744 mmHg 91%
04:00 +12°C° 0 mm 2 m/S 744 mmHg 91%
05:00 +12°C° 0 mm 2 m/S 744 mmHg 92%
06:00 +13°C° 0 mm 2 m/S 744 mmHg 88%
07:00 +14°C° 0 mm 2 m/S 744 mmHg 84%
08:00 +15°C° 0 mm 2 m/S 744 mmHg 81%
09:00 +16°C° 0 mm 3 m/S 744 mmHg 75%
10:00 +18°C° 0 mm 3 m/S 744 mmHg 70%
11:00 +20°C° 0 mm 3 m/S 744 mmHg 65%
12:00 +21°C° 0 mm 4 m/S 744 mmHg 59%
13:00 +21°C° 0 mm 4 m/S 744 mmHg 54%
14:00 +22°C° 0 mm 4 m/S 743 mmHg 49%
15:00 +21°C° 0 mm 4 m/S 743 mmHg 53%
16:00 +20°C° 0 mm 3 m/S 743 mmHg 58%
17:00 +19°C° 0 mm 3 m/S 742 mmHg 62%
18:00 +17°C° 0 mm 3 m/S 742 mmHg 63%
19:00 +16°C° 0 mm 3 m/S 743 mmHg 63%
20:00 +13°C° 0 mm 3 m/S 743 mmHg 64%
21:00 +13°C° 0 mm 3 m/S 743 mmHg 65%
22:00 +12°C° 0 mm 3 m/S 743 mmHg 65%
23:00 +12°C° 0 mm 3 m/S 742 mmHg 66%

Morgen, 24 September, Donnerstag

Zeit Temperatur Niederschläge Wind Luftdruck Luftfeuchtigkeit
00:00 +11°C° 0 mm 3 m/S 743 mmHg 65%
01:00 +11°C° 0 mm 3 m/S 743 mmHg 65%
02:00 +10°C° 0 mm 3 m/S 743 mmHg 65%
03:00 +10°C° 0 mm 3 m/S 743 mmHg 64%
04:00 +10°C° 0 mm 3 m/S 742 mmHg 63%
05:00 +9°C° 0 mm 3 m/S 742 mmHg 63%
06:00 +10°C° 0 mm 3 m/S 742 mmHg 62%
07:00 +11°C° 0 mm 3 m/S 742 mmHg 61%
08:00 +12°C° 0 mm 4 m/S 743 mmHg 60%
09:00 +13°C° 0 mm 4 m/S 743 mmHg 57%
10:00 +15°C° 0 mm 4 m/S 743 mmHg 54%
11:00 +18°C° 0 mm 4 m/S 743 mmHg 52%
12:00 +18°C° 0 mm 4 m/S 743 mmHg 50%
13:00 +19°C° 0 mm 4 m/S 743 mmHg 49%
14:00 +20°C° 0 mm 4 m/S 743 mmHg 47%
15:00 +19°C° 0 mm 4 m/S 743 mmHg 53%
16:00 +18°C° 0 mm 3 m/S 742 mmHg 59%
17:00 +17°C° 0 mm 3 m/S 742 mmHg 65%
18:00 +16°C° 0 mm 3 m/S 742 mmHg 67%
19:00 +14°C° 0 mm 3 m/S 742 mmHg 69%
20:00 +13°C° 0 mm 3 m/S 742 mmHg 71%
21:00 +12°C° 0 mm 3 m/S 742 mmHg 70%
22:00 +12°C° 0 mm 3 m/S 742 mmHg 69%
23:00 +12°C° 0 mm 3 m/S 742 mmHg 68%

übermorgen, 25 September, Freitag

Zeit Temperatur Niederschläge Wind Luftdruck Luftfeuchtigkeit
00:00 +11°C° 0 mm 3 m/S 742 mmHg 67%
01:00 +11°C° 0 mm 3 m/S 742 mmHg 66%
02:00 +11°C° 0 mm 3 m/S 742 mmHg 65%
03:00 +11°C° 0 mm 3 m/S 742 mmHg 65%
04:00 +10°C° 0 mm 3 m/S 742 mmHg 66%
05:00 +10°C° 0 mm 3 m/S 742 mmHg 67%
06:00 +11°C° 0 mm 3 m/S 742 mmHg 66%
07:00 +12°C° 0 mm 3 m/S 742 mmHg 65%
08:00 +12°C° 0 mm 4 m/S 741 mmHg 63%
09:00 +14°C° 0 mm 4 m/S 741 mmHg 61%
10:00 +17°C° 0 mm 4 m/S 741 mmHg 58%
11:00 +18°C° 0 mm 4 m/S 741 mmHg 55%
12:00 +19°C° 0 mm 4 m/S 741 mmHg 54%
13:00 +20°C° 0 mm 5 m/S 741 mmHg 53%
14:00 +21°C° 0 mm 5 m/S 741 mmHg 53%
15:00 +20°C° 0 mm 5 m/S 740 mmHg 58%
16:00 +19°C° 0 mm 4 m/S 740 mmHg 63%
17:00 +18°C° 0 mm 4 m/S 740 mmHg 68%
18:00 +18°C° 0 mm 4 m/S 740 mmHg 70%
19:00 +17°C° 0 mm 4 m/S 740 mmHg 72%
20:00 +15°C° 0 mm 5 m/S 740 mmHg 75%
21:00 +15°C° 0 mm 5 m/S 740 mmHg 72%
22:00 +15°C° 0 mm 5 m/S 740 mmHg 70%
23:00 +15°C° 0 mm 5 m/S 740 mmHg 67%

26 September, Samstag

Zeit Temperatur Niederschläge Wind Luftdruck Luftfeuchtigkeit
00:00 +15°C° 0 mm 5 m/S 739 mmHg 66%
01:00 +14°C° 0 mm 5 m/S 739 mmHg 65%
02:00 +14°C° 0 mm 5 m/S 739 mmHg 63%
03:00 +14°C° 0 mm 5 m/S 739 mmHg 63%
04:00 +13°C° 0 mm 5 m/S 739 mmHg 62%
05:00 +13°C° 0 mm 5 m/S 739 mmHg 62%
06:00 +14°C° 0 mm 5 m/S 739 mmHg 63%
07:00 +14°C° 0 mm 5 m/S 739 mmHg 64%
08:00 +14°C° 0 mm 6 m/S 739 mmHg 65%
09:00 +16°C° 0 mm 6 m/S 739 mmHg 62%
10:00 +19°C° 0 mm 6 m/S 740 mmHg 59%
11:00 +20°C° 0 mm 6 m/S 740 mmHg 56%
12:00 +21°C° 0 mm 7 m/S 740 mmHg 55%
13:00 +22°C° 0 mm 7 m/S 740 mmHg 53%
14:00 +23°C° 0 mm 7 m/S 740 mmHg 51%
15:00 +22°C° 0 mm 7 m/S 740 mmHg 55%
16:00 +21°C° 0 mm 6 m/S 740 mmHg 59%
17:00 +19°C° 0 mm 6 m/S 740 mmHg 63%
18:00 +19°C° 0 mm 6 m/S 740 mmHg 63%
19:00 +17°C° 0 mm 6 m/S 740 mmHg 63%
20:00 +16°C° 0 mm 7 m/S 740 mmHg 63%
21:00 +16°C° 0 mm 7 m/S 740 mmHg 63%
22:00 +16°C° 0 mm 7 m/S 740 mmHg 62%
23:00 +15°C° 0 mm 7 m/S 740 mmHg 62%

27 September, Sonntag

Zeit Temperatur Niederschläge Wind Luftdruck Luftfeuchtigkeit
00:00 +15°C° 0 mm 7 m/S 739 mmHg 62%
01:00 +14°C° 0 mm 7 m/S 739 mmHg 63%
02:00 +14°C° 0 mm 7 m/S 739 mmHg 64%
03:00 +14°C° 0 mm 7 m/S 739 mmHg 62%
04:00 +14°C° 0 mm 7 m/S 739 mmHg 61%
05:00 +12°C° 0 mm 7 m/S 739 mmHg 60%
06:00 +14°C° 0 mm 7 m/S 739 mmHg 60%
07:00 +14°C° 0 mm 7 m/S 739 mmHg 60%
08:00 +15°C° 0 mm 8 m/S 739 mmHg 61%
09:00 +16°C° 0 mm 8 m/S 739 mmHg 58%
10:00 +17°C° 0 mm 9 m/S 740 mmHg 56%
11:00 +19°C° 0 mm 9 m/S 740 mmHg 54%
12:00 +19°C° 0 mm 9 m/S 740 mmHg 53%
13:00 +19°C° 0 mm 9 m/S 740 mmHg 51%
14:00 +21°C° 0 mm 9 m/S 739 mmHg 50%
15:00 +20°C° 0 mm 8 m/S 739 mmHg 51%
16:00 +18°C° 0 mm 8 m/S 739 mmHg 53%
17:00 +17°C° 0 mm 7 m/S 739 mmHg 54%
18:00 +16°C° 0 mm 7 m/S 739 mmHg 52%
19:00 +16°C° 0 mm 7 m/S 739 mmHg 50%
20:00 +15°C° 0 mm 7 m/S 739 mmHg 48%
21:00 +15°C° 0 mm 7 m/S 739 mmHg 49%
22:00 +15°C° 0 mm 7 m/S 739 mmHg 51%
23:00 +15°C° 0 mm 7 m/S 739 mmHg 52%

28 September, Montag

Zeit Temperatur Niederschläge Wind Luftdruck Luftfeuchtigkeit
00:00 +14°C° 0.2 mm 6 m/S 738 mmHg 60%
01:00 +14°C° 0.2 mm 6 m/S 738 mmHg 67%
02:00 +13°C° 0.2 mm 6 m/S 738 mmHg 75%
03:00 +13°C° 0.7 mm 6 m/S 738 mmHg 80%
04:00 +13°C° 0.7 mm 6 m/S 738 mmHg 84%
05:00 +13°C° 0.7 mm 6 m/S 738 mmHg 89%
06:00 +13°C° 0.4 mm 6 m/S 738 mmHg 90%
07:00 +12°C° 0.4 mm 5 m/S 739 mmHg 91%
08:00 +12°C° 0.4 mm 5 m/S 739 mmHg 92%
09:00 +13°C° 0.2 mm 4 m/S 739 mmHg 91%
10:00 +13°C° 0.2 mm 4 m/S 740 mmHg 90%
11:00 +13°C° 0.2 mm 4 m/S 740 mmHg 89%
12:00 +14°C° 0.1 mm 3 m/S 741 mmHg 84%
13:00 +16°C° 0.1 mm 3 m/S 741 mmHg 79%
14:00 +16°C° 0.1 mm 3 m/S 741 mmHg 73%
15:00 +16°C° 0 mm 3 m/S 741 mmHg 76%
16:00 +15°C° 0 mm 2 m/S 741 mmHg 78%
17:00 +14°C° 0 mm 2 m/S 741 mmHg 81%
18:00 +13°C° 0 mm 2 m/S 742 mmHg 83%
19:00 +12°C° 0 mm 2 m/S 742 mmHg 86%
20:00 +10°C° 0 mm 2 m/S 743 mmHg 89%
21:00 +10°C° 0 mm 2 m/S 743 mmHg 89%
22:00 +10°C° 0 mm 2 m/S 743 mmHg 88%
23:00 +10°C° 0 mm 2 m/S 744 mmHg 87%
Mehr zeigen